Time,TemperatureF,DewpointF,PressureIn,WindDirection,WindDirectionDegrees,WindSpeedMPH,WindSpeedGustMPH,Humidity,HourlyPrecipIn,Conditions,Clouds,dailyrainin,SoftwareType,DateUTC
2013-11-14 00:30:00,34.0,32.5,29.87,SSW,202,4.7,-999.0,94,-99.99,,,0.00,Acu-Link.com,2013-11-14 06:30:00,
2013-11-14 00:45:00,33.8,32.3,29.86,SSW,202,5.8,-999.0,94,-99.99,,,0.00,Acu-Link.com,2013-11-14 06:45:00,
2013-11-14 01:06:00,33.8,32.3,29.86,SSW,202,3.7,-999.0,94,-99.99,,,0.00,Acu-Link.com,2013-11-14 07:06:00,
2013-11-14 01:22:00,33.6,32.3,29.85,South,180,2.7,-999.0,95,-99.99,,,0.00,Acu-Link.com,2013-11-14 07:22:00,
2013-11-14 01:42:00,34.0,32.5,29.85,South,180,5.8,-999.0,94,-99.99,,,0.00,Acu-Link.com,2013-11-14 07:42:00,
2013-11-14 02:00:00,33.8,32.5,29.85,South,180,4.2,-999.0,95,-99.99,,,0.00,Acu-Link.com,2013-11-14 08:00:00,
2013-11-14 02:16:00,34.0,32.7,29.86,SSW,202,3.7,-999.0,95,-99.99,,,0.00,Acu-Link.com,2013-11-14 08:16:00,
2013-11-14 02:31:00,34.0,32.7,29.86,SW,225,3.7,-999.0,95,-99.99,,,0.00,Acu-Link.com,2013-11-14 08:31:00,
2013-11-14 02:46:00,33.8,32.5,29.85,SE,135,3.7,-999.0,95,-99.99,,,0.00,Acu-Link.com,2013-11-14 08:46:00,
2013-11-14 03:04:00,33.8,32.8,29.85,SSW,202,5.3,-999.0,96,-99.99,,,0.00,Acu-Link.com,2013-11-14 09:04:00,
2013-11-14 03:22:00,33.8,32.8,29.85,WSW,247,4.2,-999.0,96,-99.99,,,0.00,Acu-Link.com,2013-11-14 09:22:00,
2013-11-14 03:37:00,33.8,32.8,29.85,SW,225,3.2,-999.0,96,-99.99,,,0.00,Acu-Link.com,2013-11-14 09:37:00,
2013-11-14 03:53:00,33.8,32.8,29.84,SSW,202,4.2,-999.0,96,-99.99,,,0.00,Acu-Link.com,2013-11-14 09:53:00,
2013-11-14 04:08:00,33.8,33.0,29.84,SSW,202,3.2,-999.0,97,-99.99,,,0.00,Acu-Link.com,2013-11-14 10:08:00,
2013-11-14 04:23:00,34.2,33.4,29.83,SSW,202,3.7,-999.0,97,-99.99,,,0.00,Acu-Link.com,2013-11-14 10:23:00,
2013-11-14 04:38:00,34.2,33.4,29.84,West,270,4.2,-999.0,97,-99.99,,,0.00,Acu-Link.com,2013-11-14 10:38:00,
2013-11-14 04:54:00,34.3,33.5,29.84,SSW,202,2.2,-999.0,97,-99.99,,,0.00,Acu-Link.com,2013-11-14 10:54:00,
2013-11-14 05:15:00,34.2,33.4,29.83,SW,225,3.7,-999.0,97,-99.99,,,0.00,Acu-Link.com,2013-11-14 11:15:00,
2013-11-14 05:30:00,34.2,33.4,29.83,South,180,2.7,-999.0,97,-99.99,,,0.00,Acu-Link.com,2013-11-14 11:30:00,
2013-11-14 05:46:00,34.3,33.5,29.84,SW,225,3.2,-999.0,97,-99.99,,,0.00,Acu-Link.com,2013-11-14 11:46:00,
2013-11-14 06:01:00,34.3,33.5,29.84,SSE,157,5.8,-999.0,97,-99.99,,,0.00,Acu-Link.com,2013-11-14 12:01:00,
2013-11-14 06:16:00,34.5,33.7,29.84,SSE,157,7.3,-999.0,97,-99.99,,,0.00,Acu-Link.com,2013-11-14 12:16:00,
2013-11-14 06:32:00,34.5,33.7,29.85,WSW,247,4.7,-999.0,97,-99.99,,,0.00,Acu-Link.com,2013-11-14 12:32:00,
2013-11-14 06:47:00,34.3,33.5,29.85,SSW,202,4.2,-999.0,97,-99.99,,,0.00,Acu-Link.com,2013-11-14 12:47:00,
2013-11-14 07:02:00,34.3,33.8,29.85,WSW,247,4.2,-999.0,98,-99.99,,,0.00,Acu-Link.com,2013-11-14 13:02:00,
2013-11-14 07:18:00,34.5,34.0,29.85,SW,225,3.7,-999.0,98,-99.99,,,0.00,Acu-Link.com,2013-11-14 13:18:00,
2013-11-14 07:38:00,34.2,33.7,29.84,WSW,247,2.7,-999.0,98,-99.99,,,0.00,Acu-Link.com,2013-11-14 13:38:00,
2013-11-14 07:55:00,34.5,34.0,29.85,SW,225,4.7,-999.0,98,-99.99,,,0.00,Acu-Link.com,2013-11-14 13:55:00,
2013-11-14 08:12:00,35.1,34.6,29.85,West,270,4.2,-999.0,98,-99.99,,,0.00,Acu-Link.com,2013-11-14 14:12:00,
2013-11-14 08:32:00,35.6,34.8,29.84,WSW,247,3.2,-999.0,97,-99.99,,,0.00,Acu-Link.com,2013-11-14 14:32:00,
2013-11-14 08:47:00,36.9,35.3,29.85,SW,225,4.7,-999.0,94,-99.99,,,0.00,Acu-Link.com,2013-11-14 14:47:00,
2013-11-14 09:03:00,37.6,36.3,29.85,SW,225,4.2,-999.0,95,-99.99,,,0.00,Acu-Link.com,2013-11-14 15:03:00,
2013-11-14 09:46:00,39.0,37.2,29.84,WSW,247,4.2,-999.0,93,-99.99,,,0.00,Acu-Link.com,2013-11-14 15:46:00,
2013-11-14 10:13:00,39.2,37.3,29.84,WSW,247,3.7,-999.0,93,-99.99,,,0.00,Acu-Link.com,2013-11-14 16:13:00,
2013-11-14 10:50:00,42.1,38.8,29.84,South,180,5.8,-999.0,88,-99.99,,,0.00,Acu-Link.com,2013-11-14 16:50:00,
2013-11-14 11:26:00,43.5,39.6,29.83,South,180,5.8,-999.0,86,-99.99,,,0.00,Acu-Link.com,2013-11-14 17:26:00,
2013-11-14 11:43:00,44.1,40.2,29.82,South,180,3.7,-999.0,86,-99.99,,,0.00,Acu-Link.com,2013-11-14 17:43:00,
2013-11-14 14:00:00,50.5,43.2,29.77,West,270,3.2,-999.0,76,-99.99,,,0.00,Acu-Link.com,2013-11-14 20:00:00,
2013-11-14 15:39:00,54.1,44.5,29.76,SW,225,5.8,-999.0,70,-99.99,,,0.00,Acu-Link.com,2013-11-14 21:39:00,
2013-11-14 16:02:00,52.5,43.4,29.77,WNW,292,3.7,-999.0,71,-99.99,,,0.00,Acu-Link.com,2013-11-14 22:02:00,
2013-11-14 16:18:00,50.5,42.5,29.77,West,270,4.7,-999.0,74,-99.99,,,0.00,Acu-Link.com,2013-11-14 22:18:00,
2013-11-14 16:54:00,50.4,42.4,29.78,SSW,202,2.7,-999.0,74,-99.99,,,0.00,Acu-Link.com,2013-11-14 22:54:00,